Location: Betz
(49.1556°N, 2.9558°E)
Time: 21:32:49
(UTC+00:00)

CZ-4C R/B - Pass Details

Date: 18 September 2019
Orbit: 654 x 1348 km, 63.4° (Epoch: 15 October)

Event Time Altitude Azimuth Distance (km) Brightness Sun altitude
Rises 22:22:42 0° 315° (NW) 3,666 6.4 -36.3°
Reaches altitude 10° 22:25:16 10° 322° (NW) 2,817 5.6 -36.5°
Enters shadow 22:31:36 45° 31° (NNE) 1,517 3.5 -36.9°
